Index of /20260508/WXO-DD/model_gdps/15km/00/005
Name Last modified Size Description
Parent Directory -
20260508T00Z_MSC_GDPS_AirTemp_AGL-120m_LatLon0.15_PT005H.grib2 2026-05-08 03:43 896K
20260508T00Z_MSC_GDPS_AirTemp_AGL-2m_LatLon0.15_PT005H.grib2 2026-05-08 03:43 1.0M
20260508T00Z_MSC_GDPS_AirTemp_AGL-40m_LatLon0.15_PT005H.grib2 2026-05-08 03:43 918K
20260508T00Z_MSC_GDPS_AirTemp_AGL-80m_LatLon0.15_PT005H.grib2 2026-05-08 03:43 906K
20260508T00Z_MSC_GDPS_Albedo_Sfc_LatLon0.15_PT005H.grib2 2026-05-08 03:43 243K
20260508T00Z_MSC_GDPS_ConvectivePrecip-Accum_Sfc_LatLon0.15_PT005H.grib2 2026-05-08 03:43 1.5M
20260508T00Z_MSC_GDPS_DewPointDepression_AGL-2m_LatLon0.15_PT005H.grib2 2026-05-08 03:43 762K
20260508T00Z_MSC_GDPS_DewPoint_AGL-2m_LatLon0.15_PT005H.grib2 2026-05-08 03:43 604K
20260508T00Z_MSC_GDPS_DownwardLongwaveRadiationFlux-Accum_Sfc_LatLon0.15_PT005H.grib2 2026-05-08 03:43 1.0M
20260508T00Z_MSC_GDPS_DownwardShortwaveRadiationFlux-Accum_Sfc_LatLon0.15_PT005H.grib2 2026-05-08 03:43 729K
20260508T00Z_MSC_GDPS_FreezingRain-Accum1h_Sfc_LatLon0.15_PT005H.grib2 2026-05-08 03:43 31K
20260508T00Z_MSC_GDPS_FreezingRain-Accum_Sfc_LatLon0.15_PT005H.grib2 2026-05-08 03:43 61K
20260508T00Z_MSC_GDPS_IcePellets-Accum1h_Sfc_LatLon0.15_PT005H.grib2 2026-05-08 03:43 11K
20260508T00Z_MSC_GDPS_IcePellets-Accum_Sfc_LatLon0.15_PT005H.grib2 2026-05-08 03:43 17K
20260508T00Z_MSC_GDPS_LatentHeatNetFlux_Sfc_LatLon0.15_PT005H.grib2 2026-05-08 03:43 536K
20260508T00Z_MSC_GDPS_NetLongwaveRadiationFlux-Accum_Sfc_LatLon0.15_PT005H.grib2 2026-05-08 03:43 1.1M
20260508T00Z_MSC_GDPS_NetShortwaveRadiationFlux-Accum_Sfc_LatLon0.15_PT005H.grib2 2026-05-08 03:43 673K
20260508T00Z_MSC_GDPS_O3MixingRatio_Sfc_LatLon0.15_PT005H.grib2 2026-05-08 04:48 2.1M
20260508T00Z_MSC_GDPS_O3_EAtm_LatLon0.15_PT005H.grib2 2026-05-08 04:48 2.5M
20260508T00Z_MSC_GDPS_PlanetaryBoundaryLayerHeight_Sfc_LatLon0.15_PT005H.grib2 2026-05-08 03:43 2.4M
20260508T00Z_MSC_GDPS_Precip-Accum1h_Sfc_LatLon0.15_PT005H.grib2 2026-05-08 03:43 3.2M
20260508T00Z_MSC_GDPS_Precip-Accum_Sfc_LatLon0.15_PT005H.grib2 2026-05-08 03:43 3.6M
20260508T00Z_MSC_GDPS_PrecipRate_Sfc_LatLon0.15_PT005H.grib2 2026-05-08 03:43 2.9M
20260508T00Z_MSC_GDPS_Pressure_MSL_LatLon0.15_PT005H.grib2 2026-05-08 03:43 713K
20260508T00Z_MSC_GDPS_Pressure_Sfc_LatLon0.15_PT005H.grib2 2026-05-08 03:43 1.1M
20260508T00Z_MSC_GDPS_RadiativeTemp_Sfc_LatLon0.15_PT005H.grib2 2026-05-08 03:43 660K
20260508T00Z_MSC_GDPS_Rain-Accum1h_Sfc_LatLon0.15_PT005H.grib2 2026-05-08 03:43 1.6M
20260508T00Z_MSC_GDPS_Rain-Accum_Sfc_LatLon0.15_PT005H.grib2 2026-05-08 03:43 2.5M
20260508T00Z_MSC_GDPS_RelativeHumidity_AGL-2m_LatLon0.15_PT005H.grib2 2026-05-08 03:43 1.0M
20260508T00Z_MSC_GDPS_Runoff-Accum_Sfc_LatLon0.15_PT005H.grib2 2026-05-08 03:43 67K
20260508T00Z_MSC_GDPS_SensibleHeatNetFlux_Sfc_LatLon0.15_PT005H.grib2 2026-05-08 03:43 476K
20260508T00Z_MSC_GDPS_Snow-Accum1h_Sfc_LatLon0.15_PT005H.grib2 2026-05-08 03:43 1.2M
20260508T00Z_MSC_GDPS_Snow-Accum_Sfc_LatLon0.15_PT005H.grib2 2026-05-08 03:43 1.6M
20260508T00Z_MSC_GDPS_SnowDepth_Sfc_LatLon0.15_PT005H.grib2 2026-05-08 03:43 1.7M
20260508T00Z_MSC_GDPS_SoilTemp_DBS-0to10cm_LatLon0.15_PT005H.grib2 2026-05-08 03:43 492K
20260508T00Z_MSC_GDPS_SoilTemp_Sfc_LatLon0.15_PT005H.grib2 2026-05-08 03:43 571K
20260508T00Z_MSC_GDPS_SoilVolumetricWaterContent_DBS-0to10cm_LatLon0.15_PT005H.grib2 2026-05-08 03:43 596K
20260508T00Z_MSC_GDPS_SoilVolumetricWaterContent_DBS-0to1cm_LatLon0.15_PT005H.grib2 2026-05-08 03:43 646K
20260508T00Z_MSC_GDPS_SpecificHumidity_AGL-120m_LatLon0.15_PT005H.grib2 2026-05-08 03:43 1.1M
20260508T00Z_MSC_GDPS_SpecificHumidity_AGL-2m_LatLon0.15_PT005H.grib2 2026-05-08 03:43 1.2M
20260508T00Z_MSC_GDPS_SpecificHumidity_AGL-40m_LatLon0.15_PT005H.grib2 2026-05-08 03:43 1.1M
20260508T00Z_MSC_GDPS_SpecificHumidity_AGL-80m_LatLon0.15_PT005H.grib2 2026-05-08 03:43 1.1M
20260508T00Z_MSC_GDPS_SpecificHumidity_Sfc_LatLon0.15_PT005H.grib2 2026-05-08 03:43 669K
20260508T00Z_MSC_GDPS_TotalCloudCover_Sfc_LatLon0.15_PT005H.grib2 2026-05-08 03:43 821K
20260508T00Z_MSC_GDPS_UVIndex-ClearSky_Sfc_LatLon0.15_PT005H.grib2 2026-05-08 04:48 1.1M
20260508T00Z_MSC_GDPS_UVIndex_Sfc_LatLon0.15_PT005H.grib2 2026-05-08 04:48 1.5M
20260508T00Z_MSC_GDPS_UpwardLongwaveRadiationFlux_NTAtm_LatLon0.15_PT005H.grib2 2026-05-08 03:43 825K
20260508T00Z_MSC_GDPS_WindDir_AGL-10m_LatLon0.15_PT005H.grib2 2026-05-08 03:43 1.3M
20260508T00Z_MSC_GDPS_WindDir_AGL-120m_LatLon0.15_PT005H.grib2 2026-05-08 03:43 1.3M
20260508T00Z_MSC_GDPS_WindDir_AGL-40m_LatLon0.15_PT005H.grib2 2026-05-08 03:43 1.4M
20260508T00Z_MSC_GDPS_WindDir_AGL-80m_LatLon0.15_PT005H.grib2 2026-05-08 03:43 1.4M
20260508T00Z_MSC_GDPS_WindDir_IsbL-0700_LatLon0.15_PT005H.grib2 2026-05-08 03:43 1.6M
20260508T00Z_MSC_GDPS_WindGust-Max_AGL-10m_LatLon0.15_PT005H.grib2 2026-05-08 03:43 2.2M
20260508T00Z_MSC_GDPS_WindGust-Min_AGL-10m_LatLon0.15_PT005H.grib2 2026-05-08 03:43 2.1M
20260508T00Z_MSC_GDPS_WindGust_AGL-10m_LatLon0.15_PT005H.grib2 2026-05-08 03:43 2.1M
20260508T00Z_MSC_GDPS_WindSpeed_AGL-10m_LatLon0.15_PT005H.grib2 2026-05-08 03:43 1.1M
20260508T00Z_MSC_GDPS_WindSpeed_AGL-120m_LatLon0.15_PT005H.grib2 2026-05-08 03:43 1.2M
20260508T00Z_MSC_GDPS_WindSpeed_AGL-40m_LatLon0.15_PT005H.grib2 2026-05-08 03:43 1.2M
20260508T00Z_MSC_GDPS_WindSpeed_AGL-80m_LatLon0.15_PT005H.grib2 2026-05-08 03:43 1.2M
20260508T00Z_MSC_GDPS_WindSpeed_IsbL-0700_LatLon0.15_PT005H.grib2 2026-05-08 03:43 1.2M
20260508T00Z_MSC_GDPS_WindU_AGL-10m_LatLon0.15_PT005H.grib2 2026-05-08 03:43 1.3M
20260508T00Z_MSC_GDPS_WindU_AGL-120m_LatLon0.15_PT005H.grib2 2026-05-08 03:43 1.0M
20260508T00Z_MSC_GDPS_WindU_AGL-40m_LatLon0.15_PT005H.grib2 2026-05-08 03:43 952K
20260508T00Z_MSC_GDPS_WindU_AGL-80m_LatLon0.15_PT005H.grib2 2026-05-08 03:43 957K
20260508T00Z_MSC_GDPS_WindU_IsbL-0700_LatLon0.15_PT005H.grib2 2026-05-08 03:43 1.2M
20260508T00Z_MSC_GDPS_WindV_AGL-10m_LatLon0.15_PT005H.grib2 2026-05-08 03:43 1.5M
20260508T00Z_MSC_GDPS_WindV_AGL-120m_LatLon0.15_PT005H.grib2 2026-05-08 03:43 959K
20260508T00Z_MSC_GDPS_WindV_AGL-40m_LatLon0.15_PT005H.grib2 2026-05-08 03:43 953K
20260508T00Z_MSC_GDPS_WindV_AGL-80m_LatLon0.15_PT005H.grib2 2026-05-08 03:43 958K
20260508T00Z_MSC_GDPS_WindV_IsbL-0700_LatLon0.15_PT005H.grib2 2026-05-08 03:43 1.2M